Regional Weather Roundup
Issued by NWS

Home | Current Version | Previous Version | Text Only | Print | Product List | Glossary On
Versions: 1 2 3 4 5 6 7 8 9 10 11 12 13 14 15 16 17 18 19 20 21 22 23 24 25 26 27 28 29 30 31 32 33 34 35 36 37 38 39 40 41 42 43 44 45 46 47 48 49 50
000
ASUS44 KFWD 260103
RWRTX
NORTH TEXAS HOURLY WEATHER ROUNDUP
NATIONAL WEATHER SERVICE FORT WORTH TX
800 PM CDT SAT OCT 25 2014

NOTE: "FAIR" INDICATES FEW OR NO CLOUDS BELOW 12,000 FEET WITH NO
SIGNIFICANT WEATHER AND/OR OBSTRUCTIONS TO VISIBILITY.

TXZ118-119-260200-
DALLAS/FORT WORTH METROPLEX

CITY           SKY/WX    TMP DP  RH WIND       PRES   REMARKS
DFW AIRPORT    CLEAR     79  59  50 S7        30.04S
DALLAS LOVE    CLEAR     80  60  50 S6        30.04S
FTW MEACHAM    CLEAR     80  60  50 SE8       30.04S
DAL-EXECUTIVE  CLEAR     80  59  48 S5        30.05S
FTW-ALLIANCE   CLEAR     75  59  57 S7        30.04S
FTW-NAS-JRB    CLEAR     82  58  43 S6        30.08S
FTW-SPINKS     CLEAR     73  60  63 S5        30.07S
ARLINGTON      CLEAR     76  60  57 SE5       30.05S
GRAND PRAIRIE  CLEAR     79  63  57 MISG        N/A
ADDISON        CLEAR     77  59  53 S7        30.05S
MESQUITE       CLEAR     75  61  60 SE5       30.06R
LANCASTER      CLEAR     77  59  54 S3        30.06S
$$

TXZ091>094-102>105-117-120-121-131>134-260200-
NORTH CENTRAL TEXAS

CITY           SKY/WX    TMP DP  RH WIND       PRES   REMARKS
SHRMAN/DENISON CLEAR     76  64  67 S7        30.05S
GAINESVILLE    CLEAR     74  61  65 SE3       30.07S
BRIDGEPORT     CLEAR     77  59  53 S6        30.06S
DECATUR        CLEAR     77  57  50 S7        30.06S
DENTON         CLEAR     75  60  59 S7        30.04S
MCKINNEY       CLEAR     72  61  68 S5        30.05S
GREENVILLE     CLEAR     70  61  73 S5        30.06S
ROCKWALL       CLEAR     77  62  59 S5        30.05S
TERRELL        CLEAR     75  62  64 S6        30.06S
WAXAHACHIE     CLEAR     76  61  59 CALM      30.08R
CLEBURNE       CLEAR     77  63  61 SE8       30.08S
GRANBURY       CLEAR     79  60  51 SE5       30.06S
$$

TXZ083>090-098>101-113>116-127>130-139>142-154-155-260200-
WESTERN NORTH TEXAS

CITY           SKY/WX    TMP DP  RH WIND       PRES   REMARKS
WICHITA FALLS  CLEAR     77  56  48 SE7       30.01S
WF-KICKAPOO    CLEAR     75  54  48 SE6       30.03S
VERNON         CLEAR     77  50  38 S7        30.02F
ABILENE        CLEAR     78  49  35 SE6       30.08S
ABILENE-DYESS  CLEAR     74  51  45 S3        30.06S HAZE
MINERAL WELLS  CLEAR     78  56  46 S8        30.04S
STEPHENVILLE   CLEAR     76  57  51 SE5       30.10S
COMANCHE       CLEAR     76  57  52 S7        30.08S
COLEMAN        CLEAR     75  53  46 SE3       30.08S
BRADY          CLEAR     75  54  46 SE5       30.10R
$$

TXZ143>147-156>162-174-175-260200-
CENTRAL TEXAS

CITY           SKY/WX    TMP DP  RH WIND       PRES   REMARKS
WACO           CLEAR     75  60  59 SE7       30.07R
WACO-TSTC      CLEAR     75  63  64 SE3       30.07R
WACO-MCGREGOR  CLEAR     75  55  50 S7        30.09R
HILLSBORO      CLEAR     78  58  50 SE7       30.08R
CORSICANA      CLEAR     76  63  64 SE5       30.08R
MEXIA          CLEAR     73  63  68 SE3       30.07S
HEARNE         CLEAR     71  64  78 CALM      30.09S HAZE
CAMERON        CLEAR     74  62  67 S6        30.08S
TEMPLE         CLEAR     73  55  53 SE7       30.08R
KILLEEN        CLEAR     75  59  57 S6        30.09R
KILLEEN-SKYLRK CLEAR     77  55  47 SE6       30.08R
FORT HOOD      CLEAR     79  59  50 E3        30.09R
GATESVILLE     CLEAR     75  61  60 CALM      30.10S
HAMILTON       CLEAR     74  56  54 SE6       30.10S
LAMPASAS       CLEAR     76  61  61 CALM      30.09S
$$

TXZ095>097-106>112-122>126-135>138-148>153-164>167-260200-
EAST TEXAS

CITY           SKY/WX    TMP DP  RH WIND       PRES   REMARKS
PARIS          CLEAR     73  59  60 S5        30.06S
SULPHUR SPRNGS CLEAR     77  62  59 S7        30.08R
MOUNT PLEASANT CLEAR     73  65  78 CALM      30.07S
MINEOLA        CLEAR     75  64  69 S3        30.07S
TYLER          CLEAR     73  64  73 S6        30.07S
LONGVIEW       CLEAR     69  65  86 S5        30.07S
MARSHALL       CLEAR     71  67  87 CALM      30.09S
ATHENS         CLEAR     68  64  88 CALM      30.07S
PALESTINE      CLEAR     70  67  92 CALM      30.09S
JACKSONVILLE   CLEAR     75  64  68 S3        30.11S
HENDERSON      CLEAR     68  66  92 CALM      30.09S
NACOGDOCHES    CLEAR     66  63  88 CALM      30.10R
LUFKIN         CLEAR     71  66  84 E5        30.09S
$$

SUPPLEMENTAL OBSERVATIONS (CENTRAL)

CITY           SKY/WX    TMP DP  RH WIND       PRES   REMARKS
$$

SUPPLEMENTAL OBSERVATIONS (WEST)

CITY           SKY/WX    TMP DP  RH WIND       PRES   REMARKS
$$

SUPPLEMENTAL OBSERVATIONS (EAST)

CITY           SKY/WX    TMP DP  RH WIND       PRES   REMARKS
$$

SUPPLEMENTAL OBSERVATIONS ARE A COLLECTION OF AUTOMATED INSTRUMENTS
THAT ARE MAINTAINED BY A VARIETY OF FEDERAL AND STATE AGENCIES.
CERTAIN ELEMENTS...SUCH AS HUMIDITY VALUES AND SUSTAINED WIND
SPEEDS...MAY BE APPROXIMATED.




USA.gov is the U.S. government's official web portal to all federal, state and local government web resources and services.